Lethbridge, Alberta

12:52 AM MDT on March 23, 2017 (GMT -0600)
Lethbridge Airport

Weather History for CYQL - October, 2012

Change the Weather History Date:

Saturday, October 6, 2012

  Actual Average Record
Temperature  
Mean Temperature 42 °F -  
Max Temperature 59 °F 54 °F 78 °F (2003)
Min Temperature 24 °F 30 °F 12 °F (2000)
Degree Days  
Heating Degree Days 24    
Moisture  
Dew Point 32 °F    
Average Humidity 64    
Maximum Humidity 87    
Minimum Humidity 31    
Precipitation  
Precipitation 0.00 in 0.02 in - ()
Sea Level Pressure  
Sea Level Pressure 30.30 in    
Wind  
Wind Speed 9 mph ()    
Max Wind Speed 18 mph    
Max Gust Speed 24 mph    
Visibility 10.9 miles    
Events Rain    
Averages and records for this station are not official NWS values.
T = Trace of Precipitation, MM = Missing Value Source: Averaged Metar Reports

Daily Weather History Graph

Daily Weather History Graph

Search for Another Location

Airport or City:

Trip Planner

Search our weather history database for the weather conditions in past years. The results will help you decide how hot, cold, wet, or windy it might be!

Date:

Astronomy

Oct. 06, 2012 Rise Set
Actual Time 7:39 AM MDT 6:57 PM MDT
Civil Twilight 7:07 AM MDT 7:29 PM MDT
Nautical Twilight 6:30 AM MDT 8:06 PM MDT
Astronomical Twilight 5:52 AM MDT 8:44 PM MDT
Moon 10:51 PM MDT (10/6) 2:02 PM MDT (10/6)
Length of Visible Light 12h 22m
Length of Day
11h 18m
Waning Gibbous, 65% of the Moon is Illuminated
Oct 6
Waning Gibbous
Oct 8
Last Quarter
Oct 15
New
Oct 21
First Quarter
Oct 29
Full

Hourly Weather History & Observations

Time (MDT) Temp. Windchill Dew Point Humidity Pressure Visibility Wind Dir Wind Speed Gust Speed Precip Events Conditions
12:00 AM 29 °F - 23 °F 71% 30.43 in 10 mi SSW 11.5 mph - -  
12:00 AM 28.4 °F 19.1 °F 23.0 °F 80% 30.43 in 9.0 mi SSW 10.4 mph - N/A   Scattered Clouds
1:00 AM 28.4 °F 18.5 °F 23.0 °F 80% 30.41 in 9.0 mi SSW 11.5 mph - N/A   Clear
2:00 AM 32.0 °F 23.6 °F 24.8 °F 75% 30.40 in 9.0 mi SSW 10.4 mph - N/A   Mostly Cloudy
3:00 AM 32.0 °F 24.8 °F 24.8 °F 75% 30.38 in 9.0 mi SSW 8.1 mph - N/A   Overcast
4:00 AM 32.0 °F 24.8 °F 24.8 °F 75% 30.35 in 9.0 mi SW 8.1 mph - N/A   Overcast
5:00 AM 35.6 °F 28.0 °F 24.8 °F 65% 30.32 in 9.0 mi SW 10.4 mph - N/A   Overcast
6:00 AM 35 °F - 28 °F 65% 30.31 in 10 mi WSW 9.2 mph - -   Overcast
6:00 AM 35.6 °F 28.6 °F 26.6 °F 70% 30.31 in 15.0 mi WSW 9.2 mph - N/A   Overcast
7:00 AM 35.6 °F 32.8 °F 28.4 °F 75% 30.32 in 15.0 mi WSW 3.5 mph - N/A   Overcast
8:00 AM 41.0 °F 34.7 °F 28.4 °F 61% 30.33 in 25.0 mi West 10.4 mph - N/A   Overcast
9:00 AM 42.8 °F 36.6 °F 32.0 °F 66% 30.32 in 25.0 mi WNW 11.5 mph - N/A   Overcast
10:00 AM 46.4 °F 41.5 °F 33.8 °F 62% 30.33 in 25.0 mi WNW 10.4 mph - N/A Rain Light Rain Showers
11:00 AM 46.4 °F 42.4 °F 37.4 °F 71% 30.33 in 25.0 mi West 8.1 mph - N/A Rain Light Rain Showers
12:00 PM 52 °F - 39 °F 51% 30.31 in 10 mi WNW 15.0 mph - -   Overcast
12:00 PM 51.8 °F - 39.2 °F 62% 30.31 in 30.0 mi WNW 15.0 mph - N/A   Mostly Cloudy
1:00 PM 53.6 °F - 39.2 °F 58% 30.30 in 45.0 mi NW 10.4 mph 18.4 mph N/A   Mostly Cloudy
2:00 PM 53.6 °F - 39.2 °F 58% 30.28 in 30.0 mi NNW 9.2 mph 17.3 mph N/A Rain Light Rain Showers
2:37 PM 57.2 °F - 37.4 °F 48% 30.26 in 30.0 mi NNW 13.8 mph 20.7 mph N/A   Mostly Cloudy
3:00 PM 55.4 °F - 37.4 °F 51% 30.26 in 30.0 mi NW 12.7 mph 19.6 mph N/A   Mostly Cloudy
4:00 PM 57.2 °F - 35.6 °F 44% 30.25 in 30.0 mi NNW 13.8 mph 19.6 mph N/A   Mostly Cloudy
5:00 PM 59.0 °F - 33.8 °F 39% 30.23 in 30.0 mi NNW 18.4 mph 24.2 mph N/A   Scattered Clouds
6:00 PM 56 °F - 34 °F 31% 30.23 in 10 mi NNW 13.8 mph - -  
6:00 PM 57.2 °F - 33.8 °F 41% 30.23 in 30.0 mi NNW 11.5 mph 19.6 mph N/A   Scattered Clouds
7:00 PM 50.0 °F - 33.8 °F 54% 30.23 in 30.0 mi NNE 3.5 mph - N/A   Scattered Clouds
8:00 PM 42.8 °F 40.1 °F 32.0 °F 66% 30.23 in 30.0 mi West 4.6 mph - N/A   Partly Cloudy
9:00 PM 37.4 °F 30.8 °F 32.0 °F 81% 30.24 in 15.0 mi SW 9.2 mph - N/A   Partly Cloudy
10:00 PM 35.6 °F 28.0 °F 32.0 °F 87% 30.22 in 15.0 mi SW 10.4 mph - N/A   Partly Cloudy
11:00 PM 37.4 °F 29.8 °F 33.8 °F 87% 30.20 in 9.0 mi SW 11.5 mph - N/A   Clear